Year,Month,Day,Hour,Minute,Value (Times are PST for temperature in C)
2008,08,20,00,00,15.00
2008,08,20,00,01,15.00
2008,08,20,00,02,15.00
2008,08,20,00,03,15.00
2008,08,20,00,04,15.00
2008,08,20,00,05,15.00
2008,08,20,00,06,15.00
2008,08,20,00,07,15.00
2008,08,20,00,08,15.00
2008,08,20,00,09,15.00
2008,08,20,00,10,15.00
2008,08,20,00,11,15.00
2008,08,20,00,12,15.00
2008,08,20,00,13,15.00
2008,08,20,00,14,15.00
2008,08,20,00,15,15.00
2008,08,20,00,16,14.90
2008,08,20,00,17,14.90
2008,08,20,00,18,14.90
2008,08,20,00,19,14.90
2008,08,20,00,20,14.90
2008,08,20,00,21,14.90
2008,08,20,00,22,14.90
2008,08,20,00,23,14.90
2008,08,20,00,24,14.80
2008,08,20,00,25,14.90
2008,08,20,00,26,14.90
2008,08,20,00,27,14.90
2008,08,20,00,28,14.90
2008,08,20,00,29,14.80
2008,08,20,00,30,14.80
2008,08,20,00,31,14.80
2008,08,20,00,32,14.80
2008,08,20,00,33,14.80
2008,08,20,00,34,14.80
2008,08,20,00,35,14.80
2008,08,20,00,36,14.80
2008,08,20,00,37,14.80
2008,08,20,00,38,14.80
2008,08,20,00,39,14.80
2008,08,20,00,40,14.80
2008,08,20,00,41,14.80
2008,08,20,00,42,14.80
2008,08,20,00,43,14.70
2008,08,20,00,44,14.70
2008,08,20,00,45,14.80
2008,08,20,00,46,14.70
2008,08,20,00,47,14.80
2008,08,20,00,48,14.80
2008,08,20,00,49,14.80
2008,08,20,00,50,14.80
2008,08,20,00,51,14.70
2008,08,20,00,52,14.70
2008,08,20,00,53,14.70
2008,08,20,00,54,14.70
2008,08,20,00,55,14.70
2008,08,20,00,56,14.70
2008,08,20,00,57,14.70
2008,08,20,00,58,14.70
2008,08,20,00,59,14.70
2008,08,20,01,00,14.70
2008,08,20,01,01,14.70
2008,08,20,01,02,14.70
2008,08,20,01,03,14.70
2008,08,20,01,04,14.70
2008,08,20,01,05,14.70
2008,08,20,01,06,14.70
2008,08,20,01,07,14.70
2008,08,20,01,08,14.70
2008,08,20,01,09,14.70
2008,08,20,01,10,14.70
2008,08,20,01,11,14.70
2008,08,20,01,12,14.70
2008,08,20,01,13,14.70
2008,08,20,01,14,14.70
2008,08,20,01,15,14.70
2008,08,20,01,16,14.60
2008,08,20,01,17,14.60
2008,08,20,01,18,14.60
2008,08,20,01,19,14.60
2008,08,20,01,20,14.60
2008,08,20,01,21,14.60
2008,08,20,01,22,14.60
2008,08,20,01,23,14.50
2008,08,20,01,24,14.50
2008,08,20,01,25,14.50
2008,08,20,01,26,14.50
2008,08,20,01,27,14.40
2008,08,20,01,28,14.40
2008,08,20,01,29,14.40
2008,08,20,01,30,14.40
2008,08,20,01,31,14.40
2008,08,20,01,32,14.40
2008,08,20,01,33,14.40
2008,08,20,01,34,14.40
2008,08,20,01,35,14.40
2008,08,20,01,36,14.40
2008,08,20,01,37,14.40
2008,08,20,01,38,14.30
2008,08,20,01,39,14.30
2008,08,20,01,40,14.30
2008,08,20,01,41,14.30
2008,08,20,01,42,14.30
2008,08,20,01,43,14.30
2008,08,20,01,44,14.30
2008,08,20,01,45,14.30
2008,08,20,01,46,14.20
2008,08,20,01,47,14.20
2008,08,20,01,48,14.10
2008,08,20,01,49,14.10
2008,08,20,01,50,14.00
2008,08,20,01,51,14.00
2008,08,20,01,52,13.90
2008,08,20,01,53,13.90
2008,08,20,01,54,13.90
2008,08,20,01,55,13.90
2008,08,20,01,56,13.90
2008,08,20,01,57,13.90
2008,08,20,01,58,13.80
2008,08,20,01,59,13.80
2008,08,20,02,00,13.80
2008,08,20,02,01,13.80
2008,08,20,02,02,13.80
2008,08,20,02,03,13.80
2008,08,20,02,04,13.80
2008,08,20,02,05,13.80
2008,08,20,02,06,13.80
2008,08,20,02,07,13.70
2008,08,20,02,08,13.70
2008,08,20,02,09,13.70
2008,08,20,02,10,13.70
2008,08,20,02,11,13.70
2008,08,20,02,12,13.70
2008,08,20,02,13,13.60
2008,08,20,02,14,13.60
2008,08,20,02,15,13.60
2008,08,20,02,16,13.60
2008,08,20,02,17,13.60
2008,08,20,02,18,13.60
2008,08,20,02,19,13.60
2008,08,20,02,20,13.70
2008,08,20,02,21,13.70
2008,08,20,02,22,13.70
2008,08,20,02,23,13.70
2008,08,20,02,24,13.70
2008,08,20,02,25,13.70
2008,08,20,02,26,13.70
2008,08,20,02,27,13.70
2008,08,20,02,28,13.70
2008,08,20,02,29,13.70
2008,08,20,02,30,13.80
2008,08,20,02,31,13.80
2008,08,20,02,32,13.80
2008,08,20,02,33,13.80
2008,08,20,02,34,13.80
2008,08,20,02,35,13.80
2008,08,20,02,36,13.80
2008,08,20,02,37,13.80
2008,08,20,02,38,13.80
2008,08,20,02,39,13.80
2008,08,20,02,40,13.80
2008,08,20,02,41,13.90
2008,08,20,02,42,13.90
2008,08,20,02,43,13.90
2008,08,20,02,44,13.90
2008,08,20,02,45,13.90
2008,08,20,02,46,13.90
2008,08,20,02,47,13.90
2008,08,20,02,48,13.90
2008,08,20,02,49,13.90
2008,08,20,02,50,13.90
2008,08,20,02,51,13.90
2008,08,20,02,52,13.80
2008,08,20,02,53,13.80
2008,08,20,02,54,13.80
2008,08,20,02,55,13.80
2008,08,20,02,56,13.80
2008,08,20,02,57,13.80
2008,08,20,02,58,13.80
2008,08,20,02,59,13.80
2008,08,20,03,00,13.80
2008,08,20,03,01,13.80
2008,08,20,03,02,13.80
2008,08,20,03,03,13.80
2008,08,20,03,04,13.80
2008,08,20,03,05,13.90
2008,08,20,03,06,13.90
2008,08,20,03,07,13.90
2008,08,20,03,08,13.90
2008,08,20,03,09,13.90
2008,08,20,03,10,13.90
2008,08,20,03,11,13.90
2008,08,20,03,12,14.00
2008,08,20,03,13,14.00
2008,08,20,03,14,14.00
2008,08,20,03,15,14.00
2008,08,20,03,16,14.00
2008,08,20,03,17,14.00
2008,08,20,03,18,14.00
2008,08,20,03,19,14.00
2008,08,20,03,20,14.10
2008,08,20,03,21,14.10
2008,08,20,03,22,14.10
2008,08,20,03,23,14.10
2008,08,20,03,24,14.10
2008,08,20,03,25,14.10
2008,08,20,03,26,14.10
2008,08,20,03,27,14.10
2008,08,20,03,28,14.10
2008,08,20,03,29,14.10
2008,08,20,03,30,14.20
2008,08,20,03,31,14.20
2008,08,20,03,32,14.10
2008,08,20,03,33,14.10
2008,08,20,03,34,14.10
2008,08,20,03,35,14.10
2008,08,20,03,36,14.00
2008,08,20,03,37,14.00
2008,08,20,03,38,14.00
2008,08,20,03,39,13.90
2008,08,20,03,40,13.90
2008,08,20,03,41,13.90
2008,08,20,03,42,13.90
2008,08,20,03,43,13.90
2008,08,20,03,44,13.90
2008,08,20,03,45,13.90
2008,08,20,03,46,13.90
2008,08,20,03,47,13.90
2008,08,20,03,48,13.90
2008,08,20,03,49,14.00
2008,08,20,03,50,14.00
2008,08,20,03,51,14.00
2008,08,20,03,52,14.10
2008,08,20,03,53,14.10
2008,08,20,03,54,14.10
2008,08,20,03,55,14.10
2008,08,20,03,56,14.10
2008,08,20,03,57,14.20
2008,08,20,03,58,14.10
2008,08,20,03,59,14.10
2008,08,20,04,00,14.10
2008,08,20,04,01,14.00
2008,08,20,04,02,14.00
2008,08,20,04,03,13.90
2008,08,20,04,04,13.90
2008,08,20,04,05,13.90
2008,08,20,04,06,13.90
2008,08,20,04,07,13.80
2008,08,20,04,08,13.80
2008,08,20,04,09,13.80
2008,08,20,04,10,13.80
2008,08,20,04,11,13.90
2008,08,20,04,12,14.00
2008,08,20,04,13,14.10
2008,08,20,04,14,14.20
2008,08,20,04,15,14.20
2008,08,20,04,16,14.20
2008,08,20,04,17,14.20
2008,08,20,04,18,14.20
2008,08,20,04,19,14.20
2008,08,20,04,20,14.20
2008,08,20,04,21,14.20
2008,08,20,04,22,14.20
2008,08,20,04,23,14.30
2008,08,20,04,24,14.30
2008,08,20,04,25,14.30
2008,08,20,04,26,14.20
2008,08,20,04,27,14.20
2008,08,20,04,28,14.30
2008,08,20,04,29,14.30
2008,08,20,04,30,14.40
2008,08,20,04,31,14.40
2008,08,20,04,32,14.50
2008,08,20,04,33,14.60
2008,08,20,04,34,14.60
2008,08,20,04,35,14.70
2008,08,20,04,36,14.70
2008,08,20,04,37,14.70
2008,08,20,04,38,14.80
2008,08,20,04,39,14.70
2008,08,20,04,40,14.70
2008,08,20,04,41,14.70
2008,08,20,04,42,14.70
2008,08,20,04,43,14.70
2008,08,20,04,44,14.70
2008,08,20,04,45,14.80
2008,08,20,04,46,14.80
2008,08,20,04,47,14.90
2008,08,20,04,48,15.00
2008,08,20,04,49,15.00
2008,08,20,04,50,15.30
2008,08,20,04,51,15.40
2008,08,20,04,52,15.60
2008,08,20,04,53,15.70
2008,08,20,04,54,15.80
2008,08,20,04,55,15.80
2008,08,20,04,56,15.80
2008,08,20,04,57,15.80
2008,08,20,04,58,15.80
2008,08,20,04,59,15.80
2008,08,20,05,00,15.80
2008,08,20,05,01,15.80
2008,08,20,05,02,15.80
2008,08,20,05,03,15.90
2008,08,20,05,04,15.90
2008,08,20,05,05,15.90
2008,08,20,05,06,16.00
2008,08,20,05,07,16.00
2008,08,20,05,08,16.00
2008,08,20,05,09,16.10
2008,08,20,05,10,16.10
2008,08,20,05,11,16.10
2008,08,20,05,12,16.10
2008,08,20,05,13,16.10
2008,08,20,05,14,16.10
2008,08,20,05,15,16.10
2008,08,20,05,16,16.10
2008,08,20,05,17,16.10
2008,08,20,05,18,16.00
2008,08,20,05,19,16.00
2008,08,20,05,20,16.10
2008,08,20,05,21,16.20
2008,08,20,05,22,16.20
2008,08,20,05,23,16.20
2008,08,20,05,24,16.10
2008,08,20,05,25,16.10
2008,08,20,05,26,16.00
2008,08,20,05,27,16.00
2008,08,20,05,28,15.90
2008,08,20,05,29,15.80
2008,08,20,05,30,15.80
2008,08,20,05,31,15.70
2008,08,20,05,32,15.70
2008,08,20,05,33,15.70
2008,08,20,05,34,15.70
2008,08,20,05,35,15.70
2008,08,20,05,36,15.60
2008,08,20,05,37,15.60
2008,08,20,05,38,15.50
2008,08,20,05,39,15.40
2008,08,20,05,40,15.20
2008,08,20,05,41,15.00
2008,08,20,05,42,15.00
2008,08,20,05,43,15.00
2008,08,20,05,44,15.00
2008,08,20,05,45,15.00
2008,08,20,05,46,15.00
2008,08,20,05,47,15.00
2008,08,20,05,48,15.00
2008,08,20,05,49,15.00
2008,08,20,05,50,15.00
2008,08,20,05,51,15.00
2008,08,20,05,52,15.00
2008,08,20,05,53,15.00
2008,08,20,05,54,15.00
2008,08,20,05,55,14.90
2008,08,20,05,56,14.90
2008,08,20,05,57,14.80
2008,08,20,05,58,14.80
2008,08,20,05,59,14.70
2008,08,20,06,00,14.70
2008,08,20,06,01,14.60
2008,08,20,06,02,14.60
2008,08,20,06,03,14.50
2008,08,20,06,04,14.40
2008,08,20,06,05,14.30
2008,08,20,06,06,14.20
2008,08,20,06,07,14.10
2008,08,20,06,08,14.00
2008,08,20,06,09,13.90
2008,08,20,06,10,13.80
2008,08,20,06,11,13.80
2008,08,20,06,12,13.80
2008,08,20,06,13,13.80
2008,08,20,06,14,13.90
2008,08,20,06,15,14.10
2008,08,20,06,16,14.20
2008,08,20,06,17,14.30
2008,08,20,06,18,14.30
2008,08,20,06,19,14.30
2008,08,20,06,20,14.20
2008,08,20,06,21,14.20
2008,08,20,06,22,14.10
2008,08,20,06,23,14.10
2008,08,20,06,24,14.10
2008,08,20,06,25,14.00
2008,08,20,06,26,13.90
2008,08,20,06,27,14.00
2008,08,20,06,28,14.10
2008,08,20,06,29,14.10
2008,08,20,06,30,14.20
2008,08,20,06,31,14.20
2008,08,20,06,32,14.30
2008,08,20,06,33,14.50
2008,08,20,06,34,14.70
2008,08,20,06,35,14.70
2008,08,20,06,36,14.80
2008,08,20,06,37,15.00
2008,08,20,06,38,15.00
2008,08,20,06,39,15.10
2008,08,20,06,40,15.30
2008,08,20,06,41,15.40
2008,08,20,06,42,15.50
2008,08,20,06,43,15.50
2008,08,20,06,44,15.50
2008,08,20,06,45,15.50
2008,08,20,06,46,15.50
2008,08,20,06,47,15.50
2008,08,20,06,48,15.50
2008,08,20,06,49,15.40
2008,08,20,06,50,15.40
2008,08,20,06,51,15.30
2008,08,20,06,52,15.30
2008,08,20,06,53,15.30
2008,08,20,06,54,15.30
2008,08,20,06,55,15.20
2008,08,20,06,56,15.20
2008,08,20,06,57,15.20
2008,08,20,06,58,15.20
2008,08,20,06,59,15.20
2008,08,20,07,00,15.20
2008,08,20,07,01,15.20
2008,08,20,07,02,15.20
2008,08,20,07,03,15.30
2008,08,20,07,04,15.30
2008,08,20,07,05,15.30
2008,08,20,07,06,15.30
2008,08,20,07,07,15.30
2008,08,20,07,08,15.40
2008,08,20,07,09,15.50
2008,08,20,07,10,15.50
2008,08,20,07,11,15.50
2008,08,20,07,12,15.50
2008,08,20,07,13,15.50
2008,08,20,07,14,15.50
2008,08,20,07,15,15.40
2008,08,20,07,16,15.40
2008,08,20,07,17,15.40
2008,08,20,07,18,15.30
2008,08,20,07,19,15.30
2008,08,20,07,20,15.30
2008,08,20,07,21,15.30
2008,08,20,07,22,15.30
2008,08,20,07,23,15.30
2008,08,20,07,24,15.30
2008,08,20,07,25,15.30
2008,08,20,07,26,15.30
2008,08,20,07,27,15.30
2008,08,20,07,28,15.30
2008,08,20,07,29,15.30
2008,08,20,07,30,15.20
2008,08,20,07,31,15.10
2008,08,20,07,32,15.00
2008,08,20,07,33,15.00
2008,08,20,07,34,15.00
2008,08,20,07,35,15.00
2008,08,20,07,36,15.00
2008,08,20,07,37,15.00
2008,08,20,07,38,15.00
2008,08,20,07,39,14.90
2008,08,20,07,40,14.80
2008,08,20,07,41,14.70
2008,08,20,07,42,14.50
2008,08,20,07,43,14.40
2008,08,20,07,44,14.40
2008,08,20,07,45,14.30
2008,08,20,07,46,14.30
2008,08,20,07,47,14.30
2008,08,20,07,48,14.30
2008,08,20,07,49,14.30
2008,08,20,07,50,14.30
2008,08,20,07,51,14.40
2008,08,20,07,52,14.40
2008,08,20,07,53,14.40
2008,08,20,07,54,14.40
2008,08,20,07,55,14.50
2008,08,20,07,56,14.50
2008,08,20,07,57,14.60
2008,08,20,07,58,14.70
2008,08,20,07,59,14.80
2008,08,20,08,00,14.90
2008,08,20,08,01,15.00
2008,08,20,08,02,15.00
2008,08,20,08,03,15.00
2008,08,20,08,04,15.00
2008,08,20,08,05,15.10
2008,08,20,08,06,15.00
2008,08,20,08,07,15.10
2008,08,20,08,08,15.20
2008,08,20,08,09,15.30
2008,08,20,08,10,15.40
2008,08,20,08,11,15.40
2008,08,20,08,12,15.50
2008,08,20,08,13,15.50
2008,08,20,08,14,15.50
2008,08,20,08,15,15.60
2008,08,20,08,16,15.60
2008,08,20,08,17,15.50
2008,08,20,08,18,15.40
2008,08,20,08,19,15.50
2008,08,20,08,20,15.60
2008,08,20,08,21,15.60
2008,08,20,08,22,15.70
2008,08,20,08,23,15.70
2008,08,20,08,24,15.80
2008,08,20,08,25,15.80
2008,08,20,08,26,15.80
2008,08,20,08,27,15.80
2008,08,20,08,28,15.90
2008,08,20,08,29,15.90
2008,08,20,08,30,15.90
2008,08,20,08,31,15.90
2008,08,20,08,32,16.00
2008,08,20,08,33,16.00
2008,08,20,08,34,16.00
2008,08,20,08,35,16.00
2008,08,20,08,36,16.00
2008,08,20,08,37,16.00
2008,08,20,08,38,15.90
2008,08,20,08,39,15.90
2008,08,20,08,40,15.90
2008,08,20,08,41,16.00
2008,08,20,08,42,16.00
2008,08,20,08,43,16.00
2008,08,20,08,44,16.00
2008,08,20,08,45,16.00
2008,08,20,08,46,16.00
2008,08,20,08,47,16.00
2008,08,20,08,48,16.00
2008,08,20,08,49,16.00
2008,08,20,08,50,16.10
2008,08,20,08,51,16.10
2008,08,20,08,52,16.10
2008,08,20,08,53,16.10
2008,08,20,08,54,16.10
2008,08,20,08,55,16.10
2008,08,20,08,56,16.10
2008,08,20,08,57,16.10
2008,08,20,08,58,16.10
2008,08,20,08,59,16.00
2008,08,20,09,00,16.00
2008,08,20,09,01,16.00
2008,08,20,09,02,16.00
2008,08,20,09,03,16.00
2008,08,20,09,04,16.00
2008,08,20,09,05,16.10
2008,08,20,09,06,16.10
2008,08,20,09,07,16.20
2008,08,20,09,08,16.20
2008,08,20,09,09,16.30
2008,08,20,09,10,16.30
2008,08,20,09,11,16.20
2008,08,20,09,12,16.20
2008,08,20,09,13,16.20
2008,08,20,09,14,16.20
2008,08,20,09,15,16.20
2008,08,20,09,16,16.20
2008,08,20,09,17,16.20
2008,08,20,09,18,16.20
2008,08,20,09,19,16.20
2008,08,20,09,20,16.10
2008,08,20,09,21,16.10
2008,08,20,09,22,16.10
2008,08,20,09,23,16.10
2008,08,20,09,24,16.10
2008,08,20,09,25,16.10
2008,08,20,09,26,16.10
2008,08,20,09,27,16.10
2008,08,20,09,28,16.10
2008,08,20,09,29,16.10
2008,08,20,09,30,16.20
2008,08,20,09,31,16.20
2008,08,20,09,32,16.30
2008,08,20,09,33,16.30
2008,08,20,09,34,16.30
2008,08,20,09,35,16.30
2008,08,20,09,36,16.30
2008,08,20,09,37,16.30
2008,08,20,09,38,16.30
2008,08,20,09,39,16.30
2008,08,20,09,40,16.30
2008,08,20,09,41,16.30
2008,08,20,09,42,16.30
2008,08,20,09,43,16.30
2008,08,20,09,44,16.30
2008,08,20,09,45,16.30
2008,08,20,09,46,16.30
2008,08,20,09,47,16.30
2008,08,20,09,48,16.30
2008,08,20,09,49,16.30
2008,08,20,09,50,16.40
2008,08,20,09,51,16.40
2008,08,20,09,52,16.40
2008,08,20,09,53,16.40
2008,08,20,09,54,16.40
2008,08,20,09,55,16.40
2008,08,20,09,56,16.40
2008,08,20,09,57,16.30
2008,08,20,09,58,16.30
2008,08,20,09,59,16.30
2008,08,20,10,00,16.30
2008,08,20,10,01,16.30
2008,08,20,10,02,16.30
2008,08,20,10,03,16.30
2008,08,20,10,04,16.30
2008,08,20,10,05,16.30
2008,08,20,10,06,16.30
2008,08,20,10,07,16.30
2008,08,20,10,08,16.30
2008,08,20,10,09,16.30
2008,08,20,10,10,16.30
2008,08,20,10,11,16.40
2008,08,20,10,12,16.40
2008,08,20,10,13,16.40
2008,08,20,10,14,16.40
2008,08,20,10,15,16.40
2008,08,20,10,16,16.40
2008,08,20,10,17,16.40
2008,08,20,10,18,16.50
2008,08,20,10,19,16.50
2008,08,20,10,20,16.50
2008,08,20,10,21,16.60
2008,08,20,10,22,16.60
2008,08,20,10,23,16.60
2008,08,20,10,24,16.60
2008,08,20,10,25,16.60
2008,08,20,10,26,16.60
2008,08,20,10,27,16.60
2008,08,20,10,28,16.60
2008,08,20,10,29,16.70
2008,08,20,10,30,16.60
2008,08,20,10,31,16.60
2008,08,20,10,32,16.60
2008,08,20,10,33,16.50
2008,08,20,10,34,16.50
2008,08,20,10,35,16.50
2008,08,20,10,36,16.40
2008,08,20,10,37,16.40
2008,08,20,10,38,16.40
2008,08,20,10,39,16.40
2008,08,20,10,40,16.40
2008,08,20,10,41,16.40
2008,08,20,10,42,16.40
2008,08,20,10,43,16.30
2008,08,20,10,44,16.30
2008,08,20,10,45,16.30
2008,08,20,10,46,16.40
2008,08,20,10,47,16.40
2008,08,20,10,48,16.40
2008,08,20,10,49,16.40
2008,08,20,10,50,16.40
2008,08,20,10,51,16.40
2008,08,20,10,52,16.40
2008,08,20,10,53,16.40
2008,08,20,10,54,16.40
2008,08,20,10,55,16.30
2008,08,20,10,56,16.30
2008,08,20,10,57,16.20
2008,08,20,10,58,16.20
2008,08,20,10,59,16.10
2008,08,20,11,00,16.00
2008,08,20,11,01,15.90
2008,08,20,11,02,15.80
2008,08,20,11,03,15.80
2008,08,20,11,04,15.70
2008,08,20,11,05,15.70
2008,08,20,11,06,15.60
2008,08,20,11,07,15.60
2008,08,20,11,08,15.60
2008,08,20,11,09,15.60
2008,08,20,11,10,15.60
2008,08,20,11,11,15.60
2008,08,20,11,12,15.60
2008,08,20,11,13,15.60
2008,08,20,11,14,15.60
2008,08,20,11,15,15.70
2008,08,20,11,16,15.70
2008,08,20,11,17,15.70
2008,08,20,11,18,15.70
2008,08,20,11,19,15.70
2008,08,20,11,20,15.70
2008,08,20,11,21,15.70
2008,08,20,11,22,15.80
2008,08,20,11,23,15.80
2008,08,20,11,24,15.80
2008,08,20,11,25,15.80
2008,08,20,11,26,15.80
2008,08,20,11,27,15.90
2008,08,20,11,28,15.90
2008,08,20,11,29,15.90
2008,08,20,11,30,15.90
2008,08,20,11,31,15.90
2008,08,20,11,32,16.00
2008,08,20,11,33,16.00
2008,08,20,11,34,16.00
2008,08,20,11,35,16.10
2008,08,20,11,36,16.10
2008,08,20,11,37,16.10
2008,08,20,11,38,16.20
2008,08,20,11,39,16.20
2008,08,20,11,40,16.20
2008,08,20,11,41,16.30
2008,08,20,11,42,16.30
2008,08,20,11,43,16.40
2008,08,20,11,44,16.40
2008,08,20,11,45,16.50
2008,08,20,11,46,16.50
2008,08,20,11,47,16.60
2008,08,20,11,48,16.60
2008,08,20,11,49,16.60
2008,08,20,11,50,16.60
2008,08,20,11,51,16.60
2008,08,20,11,52,16.70
2008,08,20,11,53,16.70
2008,08,20,11,54,16.70
2008,08,20,11,55,16.70
2008,08,20,11,56,16.70
2008,08,20,11,57,16.80
2008,08,20,11,58,16.80
2008,08,20,11,59,16.80
2008,08,20,12,00,16.80
2008,08,20,12,01,16.80
2008,08,20,12,02,16.80
2008,08,20,12,03,16.90
2008,08,20,12,04,16.90
2008,08,20,12,05,16.90
2008,08,20,12,06,17.00
2008,08,20,12,07,17.00
2008,08,20,12,08,17.00
2008,08,20,12,09,17.00
2008,08,20,12,10,17.00
2008,08,20,12,11,17.00
2008,08,20,12,12,17.10
2008,08,20,12,13,17.10
2008,08,20,12,14,17.10
2008,08,20,12,15,17.10
2008,08,20,12,16,17.10
2008,08,20,12,17,17.10
2008,08,20,12,18,17.10
2008,08,20,12,19,17.10
2008,08,20,12,20,17.10
2008,08,20,12,21,17.10
2008,08,20,12,22,17.10
2008,08,20,12,23,17.10
2008,08,20,12,24,17.10
2008,08,20,12,25,17.10
2008,08,20,12,26,17.10
2008,08,20,12,27,17.10
2008,08,20,12,28,17.10
2008,08,20,12,29,17.10
2008,08,20,12,30,17.10
2008,08,20,12,31,17.10
2008,08,20,12,32,17.10
2008,08,20,12,33,17.10
2008,08,20,12,34,17.10
2008,08,20,12,35,17.10
2008,08,20,12,36,17.10
2008,08,20,12,37,17.10
2008,08,20,12,38,17.10
2008,08,20,12,39,17.10
2008,08,20,12,40,17.10
2008,08,20,12,41,17.10
2008,08,20,12,42,17.10
2008,08,20,12,43,17.10
2008,08,20,12,44,17.10
2008,08,20,12,45,17.10
2008,08,20,12,46,17.10
2008,08,20,12,47,17.10
2008,08,20,12,48,17.10
2008,08,20,12,49,17.10
2008,08,20,12,50,17.10
2008,08,20,12,51,17.10
2008,08,20,12,52,17.10
2008,08,20,12,53,17.10
2008,08,20,12,54,17.10
2008,08,20,12,55,17.10
2008,08,20,12,56,17.10
2008,08,20,12,57,17.10
2008,08,20,12,58,17.10
2008,08,20,12,59,17.10
2008,08,20,13,00,17.10
2008,08,20,13,01,17.10
2008,08,20,13,02,17.10
2008,08,20,13,03,17.10
2008,08,20,13,04,17.10
2008,08,20,13,05,17.10
2008,08,20,13,06,17.10
2008,08,20,13,07,17.10
2008,08,20,13,08,17.10
2008,08,20,13,09,17.10
2008,08,20,13,10,17.10
2008,08,20,13,11,17.00
2008,08,20,13,12,16.90
2008,08,20,13,13,16.90
2008,08,20,13,14,16.90
2008,08,20,13,15,16.90
2008,08,20,13,16,16.80
2008,08,20,13,17,16.80
2008,08,20,13,18,16.80
2008,08,20,13,19,16.80
2008,08,20,13,20,16.80
2008,08,20,13,21,16.80
2008,08,20,13,22,16.80
2008,08,20,13,23,16.80
2008,08,20,13,24,16.90
2008,08,20,13,25,16.90
2008,08,20,13,26,16.90
2008,08,20,13,27,16.90
2008,08,20,13,28,16.90
2008,08,20,13,29,16.90
2008,08,20,13,30,16.90
2008,08,20,13,31,16.90
2008,08,20,13,32,16.90
2008,08,20,13,33,16.80
2008,08,20,13,34,16.80
2008,08,20,13,35,16.80
2008,08,20,13,36,16.70
2008,08,20,13,37,16.70
2008,08,20,13,38,16.70
2008,08,20,13,39,16.70
2008,08,20,13,40,16.70
2008,08,20,13,41,16.60
2008,08,20,13,42,16.60
2008,08,20,13,43,16.60
2008,08,20,13,44,16.60
2008,08,20,13,45,16.50
2008,08,20,13,46,16.50
2008,08,20,13,47,16.40
2008,08,20,13,48,16.40
2008,08,20,13,49,16.30
2008,08,20,13,50,16.30
2008,08,20,13,51,16.20
2008,08,20,13,52,16.20
2008,08,20,13,53,16.10
2008,08,20,13,54,16.10
2008,08,20,13,55,16.00
2008,08,20,13,56,16.00
2008,08,20,13,57,15.90
2008,08,20,13,58,15.80
2008,08,20,13,59,15.80
2008,08,20,14,00,15.70
2008,08,20,14,01,15.50
2008,08,20,14,02,15.40
2008,08,20,14,03,15.20
2008,08,20,14,04,15.00
2008,08,20,14,05,15.00
2008,08,20,14,06,15.00
2008,08,20,14,07,14.90
2008,08,20,14,08,14.80
2008,08,20,14,09,14.70
2008,08,20,14,10,14.70
2008,08,20,14,11,14.60
2008,08,20,14,12,14.60
2008,08,20,14,13,14.50
2008,08,20,14,14,14.40
2008,08,20,14,15,14.40
2008,08,20,14,16,14.40
2008,08,20,14,17,14.30
2008,08,20,14,18,14.30
2008,08,20,14,19,14.30
2008,08,20,14,20,14.20
2008,08,20,14,21,14.20
2008,08,20,14,22,14.10
2008,08,20,14,23,14.10
2008,08,20,14,24,14.10
2008,08,20,14,25,14.00
2008,08,20,14,26,14.00
2008,08,20,14,27,13.90
2008,08,20,14,28,13.90
2008,08,20,14,29,13.90
2008,08,20,14,30,13.90
2008,08,20,14,31,13.90
2008,08,20,14,32,13.80
2008,08,20,14,33,13.80
2008,08,20,14,34,13.80
2008,08,20,14,35,13.80
2008,08,20,14,36,13.80
2008,08,20,14,37,13.80
2008,08,20,14,38,13.80
2008,08,20,14,39,13.80
2008,08,20,14,40,13.80
2008,08,20,14,41,13.80
2008,08,20,14,42,13.80
2008,08,20,14,43,13.80
2008,08,20,14,44,13.80
2008,08,20,14,45,13.80
2008,08,20,14,46,13.80
2008,08,20,14,47,13.80
2008,08,20,14,48,13.80
2008,08,20,14,49,13.80
2008,08,20,14,50,13.70
2008,08,20,14,51,13.70
2008,08,20,14,52,13.70
2008,08,20,14,53,13.70
2008,08,20,14,54,13.70
2008,08,20,14,55,13.70
2008,08,20,14,56,13.70
2008,08,20,14,57,13.70
2008,08,20,14,58,13.70
2008,08,20,14,59,13.70
2008,08,20,15,00,13.70
2008,08,20,15,01,13.70
2008,08,20,15,02,13.60
2008,08,20,15,03,13.60
2008,08,20,15,04,13.60
2008,08,20,15,05,13.60
2008,08,20,15,06,13.70
2008,08,20,15,07,13.70
2008,08,20,15,08,13.60
2008,08,20,15,09,13.60
2008,08,20,15,10,13.60
2008,08,20,15,11,13.60
2008,08,20,15,12,13.60
2008,08,20,15,13,13.60
2008,08,20,15,14,13.60
2008,08,20,15,15,13.50
2008,08,20,15,16,13.50
2008,08,20,15,17,13.50
2008,08,20,15,18,13.50
2008,08,20,15,19,13.50
2008,08,20,15,20,13.50
2008,08,20,15,21,13.50
2008,08,20,15,22,13.50
2008,08,20,15,23,13.40
2008,08,20,15,24,13.40
2008,08,20,15,25,13.40
2008,08,20,15,26,13.40
2008,08,20,15,27,13.40
2008,08,20,15,28,13.40
2008,08,20,15,29,13.40
2008,08,20,15,30,13.40
2008,08,20,15,31,13.40
2008,08,20,15,32,13.40
2008,08,20,15,33,13.40
2008,08,20,15,34,13.40
2008,08,20,15,35,13.40
2008,08,20,15,36,13.50
2008,08,20,15,37,13.50
2008,08,20,15,38,13.50
2008,08,20,15,39,13.50
2008,08,20,15,40,13.50
2008,08,20,15,41,13.50
2008,08,20,15,42,13.60
2008,08,20,15,43,13.60
2008,08,20,15,44,13.60
2008,08,20,15,45,13.60
2008,08,20,15,46,13.60
2008,08,20,15,47,13.60
2008,08,20,15,48,13.60
2008,08,20,15,49,13.60
2008,08,20,15,50,13.70
2008,08,20,15,51,13.70
2008,08,20,15,52,13.70
2008,08,20,15,53,13.70
2008,08,20,15,54,13.80
2008,08,20,15,55,13.80
2008,08,20,15,56,13.80
2008,08,20,15,57,13.80
2008,08,20,15,58,13.80
2008,08,20,15,59,13.80
2008,08,20,16,00,13.90
2008,08,20,16,01,13.90
2008,08,20,16,02,13.90
2008,08,20,16,03,13.90
2008,08,20,16,04,14.00
2008,08,20,16,05,14.00
2008,08,20,16,06,14.00
2008,08,20,16,07,14.10
2008,08,20,16,08,14.10
2008,08,20,16,09,14.10
2008,08,20,16,10,14.10
2008,08,20,16,11,14.10
2008,08,20,16,12,14.10
2008,08,20,16,13,14.10
2008,08,20,16,14,14.10
2008,08,20,16,15,14.10
2008,08,20,16,16,14.10
2008,08,20,16,17,14.10
2008,08,20,16,18,14.10
2008,08,20,16,19,14.00
2008,08,20,16,20,14.10
2008,08,20,16,21,14.00
2008,08,20,16,22,14.00
2008,08,20,16,23,14.00
2008,08,20,16,24,14.00
2008,08,20,16,25,13.90
2008,08,20,16,26,13.90
2008,08,20,16,27,13.90
2008,08,20,16,28,13.90
2008,08,20,16,29,13.90
2008,08,20,16,30,13.90
2008,08,20,16,31,13.90
2008,08,20,16,32,13.90
2008,08,20,16,33,13.90
2008,08,20,16,34,14.00
2008,08,20,16,35,14.00
2008,08,20,16,36,14.00
2008,08,20,16,37,14.00
2008,08,20,16,38,14.10
2008,08,20,16,39,14.10
2008,08,20,16,40,14.10
2008,08,20,16,41,14.10
2008,08,20,16,42,14.10
2008,08,20,16,43,14.10
2008,08,20,16,44,14.20
2008,08,20,16,45,14.20
2008,08,20,16,46,14.20
2008,08,20,16,47,14.20
2008,08,20,16,48,14.20
2008,08,20,16,49,14.20
2008,08,20,16,50,14.20
2008,08,20,16,51,14.20
2008,08,20,16,52,14.20
2008,08,20,16,53,14.20
2008,08,20,16,54,14.20
2008,08,20,16,55,14.20
2008,08,20,16,56,14.20
2008,08,20,16,57,14.20
2008,08,20,16,58,14.20
2008,08,20,16,59,14.20
2008,08,20,17,00,14.20
2008,08,20,17,01,14.20
2008,08,20,17,02,14.10
2008,08,20,17,03,14.10
2008,08,20,17,04,14.20
2008,08,20,17,05,14.20
2008,08,20,17,06,14.20
2008,08,20,17,07,14.20
2008,08,20,17,08,14.20
2008,08,20,17,09,14.30
2008,08,20,17,10,14.30
2008,08,20,17,11,14.30
2008,08,20,17,12,14.30
2008,08,20,17,13,14.30
2008,08,20,17,14,14.40
2008,08,20,17,15,14.40
2008,08,20,17,16,14.50
2008,08,20,17,17,14.40
2008,08,20,17,18,14.40
2008,08,20,17,19,14.40